Location: Lane
(33.5226°N, 79.8788°W)
Time: 19:52:27
(UTC+00:00)

Courier 1B Rocket - Pass Details

Date: 14 October 2022
Orbit: 920 x 1202 km, 28.3° (Epoch: 01 December)

Event Time Altitude Azimuth Distance (km) Brightness Sun altitude
Rises 17:12:53 0° 212° (SSW) 4,062 8.8 48.1°
Reaches altitude 10° 17:16:32 10° 197° (SSW) 3,117 8.6 48.1°
Maximum altitude 17:22:00 21° 152° (SSE) 2,409 8.0 48.0°
Drops below altitude 10° 17:27:26 10° 108° (ESE) 3,107 7.8 47.8°
Sets 17:31:03 0° 93° (E) 4,045 8.2 47.7°
